Weather History for Ashtabula, OH

Change the Weather History Date:

Sunday, April 27, 2014

  Actual Average (KYNG) Record (KYNG)
Temperature  
Mean Temperature 41 °F 52 °F  
Max Temperature 50 °F 64 °F 90 °F (1942)
Min Temperature 32 °F 42 °F 24 °F (1993)
Degree Days  
Heating Degree Days 24 13  
Month to date heating degree days 465  
Since 1 July heating degree days 5989  
Cooling Degree Days 0 0  
Month to date cooling degree days 0  
Year to date cooling degree days 1  
Moisture  
Dew Point 30 °F    
Average Humidity 63    
Maximum Humidity 83    
Minimum Humidity 44    
Precipitation  
Precipitation 0.00 in 0.11 in 1.06 in (1973)
Month to date precipitation 3.04  
Year to date precipitation 10.68  
Snow  
Snow 0.00 in 0.10 in - ()
Month to date snowfall 3.0  
Since 1 July snowfall 62.7  
Snow Depth -    
Sea Level Pressure  
Sea Level Pressure 30.13 in    
Wind  
Wind Speed 5 mph (NNE)    
Max Wind Speed 10 mph    
Max Gust Speed -    
Visibility 10 miles    
Events      
T = Trace of Precipitation, MM = Missing Value Source: NWS Daily Summary

Daily Weather History Graph

Daily Weather History Graph

Search for Another Location

Airport:

Trip Planner

Search our weather history database for the weather conditions in past years. The results will help you decide how hot, cold, wet, or windy it might be!

Date:

Astronomy

Apr. 27, 2014 Rise Set
Actual Time 6:24 AM EDT 8:16 PM EDT
Civil Twilight 5:54 AM EDT 8:46 PM EDT
Nautical Twilight 5:18 AM EDT 9:23 PM EDT
Astronomical Twilight 4:39 AM EDT 10:02 PM EDT
Moon 5:26 AM EDT (4/27) 6:47 PM EDT (4/27)
Length of Visible Light 14h 52m
Length of Day
13h 52m
Waning Crescent, 3% of the Moon is Illuminated
Apr 27
Waning Crescent
Apr 29
New
May 6
First Quarter
May 14
Full
May 21
Last Quarter

Hourly Weather History & Observations

Time (EDT) Temp. Windchill Dew Point Humidity Pressure Visibility Wind Dir Wind Speed Gust Speed Precip Events Conditions
12:26 AM 37.9 °F 34.4 °F 33.1 °F 83% 30.08 in 10.0 mi NW 4.6 mph - N/A   Overcast
12:53 AM 39.0 °F 35.7 °F 32.0 °F 76% 30.10 in 10.0 mi NNW 4.6 mph - N/A   Overcast
1:23 AM 39.0 °F 35.7 °F 32.0 °F 76% 30.08 in 10.0 mi North 4.6 mph - N/A   Overcast
1:53 AM 37.9 °F 35.5 °F 32.0 °F 79% 30.10 in 10.0 mi NNW 3.5 mph - N/A   Overcast
2:10 AM 37.9 °F - 32.0 °F 79% 30.08 in 10.0 mi Calm Calm - N/A   Overcast
2:53 AM 37.9 °F 35.5 °F 32.0 °F 79% 30.10 in 10.0 mi North 3.5 mph - N/A   Overcast
3:53 AM 37.9 °F 35.5 °F 30.0 °F 73% 30.10 in 10.0 mi Variable 3.5 mph - N/A   Overcast
4:26 AM 37.9 °F 35.5 °F 27.0 °F 65% 30.09 in 10.0 mi Variable 3.5 mph - N/A   Scattered Clouds
4:33 AM 37.9 °F 35.5 °F 27.0 °F 65% 30.09 in 10.0 mi NNE 3.5 mph - N/A   Mostly Cloudy
4:40 AM 37.0 °F 33.3 °F 27.0 °F 67% 30.09 in 10.0 mi NNE 4.6 mph - N/A   Scattered Clouds
4:53 AM 37.0 °F 34.5 °F 26.1 °F 65% 30.11 in 10.0 mi Variable 3.5 mph - N/A   Partly Cloudy
5:53 AM 36.0 °F - 26.1 °F 67% 30.12 in 10.0 mi Calm Calm - N/A   Clear
6:53 AM 32.0 °F - 26.1 °F 79% 30.15 in 10.0 mi Calm Calm - N/A   Clear
7:53 AM 37.9 °F 34.4 °F 30.0 °F 73% 30.17 in 10.0 mi North 4.6 mph - N/A   Clear
8:53 AM 39.9 °F 34.5 °F 28.9 °F 65% 30.18 in 10.0 mi NNE 8.1 mph - N/A   Clear
9:31 AM 41.0 °F 36.4 °F 28.9 °F 62% 30.16 in 10.0 mi ENE 6.9 mph - N/A   Mostly Cloudy
9:53 AM 42.1 °F 40.2 °F 28.9 °F 60% 30.17 in 10.0 mi NNE 3.5 mph - N/A   Mostly Cloudy
10:35 AM 43.0 °F 39.5 °F 30.0 °F 60% 30.17 in 10.0 mi Variable 5.8 mph - N/A   Scattered Clouds
10:42 AM 44.1 °F 39.0 °F 30.0 °F 58% 30.17 in 10.0 mi NW 9.2 mph - N/A   Mostly Cloudy
10:53 AM 45.0 °F 40.6 °F 30.9 °F 58% 30.19 in 10.0 mi North 8.1 mph - N/A   Scattered Clouds
11:00 AM 46.0 °F 43.9 °F 30.0 °F 54% 30.17 in 10.0 mi Variable 4.6 mph - N/A   Mostly Cloudy
11:24 AM 46.0 °F 42.5 °F 30.0 °F 54% 30.17 in 10.0 mi Variable 6.9 mph - N/A   Mostly Cloudy
12:53 PM 48.9 °F - 30.0 °F 48% 30.16 in 10.0 mi Variable 5.8 mph - N/A   Clear
1:53 PM 48.9 °F - 32.0 °F 52% 30.14 in 10.0 mi NNE 10.4 mph - N/A   Clear
2:53 PM 48.9 °F - 32.0 °F 52% 30.14 in 10.0 mi NNE 10.4 mph - N/A   Unknown
5:53 PM 50.0 °F - 28.9 °F 44% 30.12 in 10.0 mi NE 9.2 mph - N/A   Clear
6:53 PM 50.0 °F - 28.9 °F 44% 30.12 in 10.0 mi ENE 9.2 mph - N/A   Clear
7:53 PM 46.9 °F - 30.0 °F 52% 30.13 in 10.0 mi NE 6.9 mph - N/A   Clear
8:53 PM 45.0 °F 43.5 °F 30.0 °F 56% 30.15 in 10.0 mi NE 3.5 mph - N/A   Clear
9:53 PM 45.0 °F 40.1 °F 28.9 °F 53% 30.14 in 10.0 mi ENE 9.2 mph - N/A   Clear
10:53 PM 45.0 °F 40.6 °F 28.0 °F 52% 30.13 in 10.0 mi ENE 8.1 mph - N/A   Clear
11:53 PM 45.0 °F 40.6 °F 28.0 °F 52% 30.12 in 10.0 mi ENE 8.1 mph - N/A   Clear